RH
8 72 90 97 98 97 97 97 96 96 77 57 32 25 22 21 21 21 19 19 18 21 24 30 41 46 40 16 22 40 42 35 48 22 11 11 10 11
9 9 33 81 98 98 93 98 95 97 96 95 70 62 47 36 31 28 24 30 32 34 31 50 57 50 24 30 48 47 43 40 43 21 13 11 10 12
17 13 9 32 76 97 98 98 96 95 95 100 99 95 91 76 62 62 52 47 50 54 62 64 53 44 23 35 50 42 56 51 44 32 33 17 11 11
21 18 14 9 16 46 100 98 97 97 95 97 97 97 97 97 92 80 77 67 55 52 48 37 31 24 18 34 57 58 61 52 40 53 22 14 12 12
26 22 18 16 8 50 63 97 98 98 93 96 97 99 96 95 93 90 87 79 70 64 62 56 53 27 20 27 59 62 59 61 31 24 19 13 12 12
35 28 24 20 16 9 19 38 68 82 94 97 97 95 96 91 92 86 80 70 75 90 93 94 97 76 43 54 64 60 48 31 25 24 17 13 13 14
42 36 29 24 21 17 10 8 27 58 87 94 98 91 98 95 90 90 80 74 79 80 83 90 71 81 91 70 67 61 34 25 30 22 15 15 14 15
42 40 35 29 24 21 17 12 9 19 96 96 93 98 90 74 100 91 100 90 84 96 83 62 58 79 86 93 82 62 30 32 27 22 17 15 16 15
40 42 40 34 30 25 21 18 14 9 17 63 58 85 87 98 98 100 97 93 89 99 96 93 90 86 86 86 87 64 34 39 37 36 23 17 16 16
23 38 40 38 34 30 26 21 18 14 10 11 10 88 62 63 97 94 98 100 97 93 96 82 77 79 91 88 72 36 48 50 49 41 22 19 18 18
7 20 35 38 36 34 30 24 20 17 15 12 11 26 67 39 48 98 96 97 75 93 97 94 68 74 67 78 73 59 82 61 71 62 30 24 24 22
5 6 17 32 36 35 33 29 23 18 16 15 14 10 10 11 15 38 58 50 33 69 86 98 90 95 92 97 79 82 86 80 95 91 81 86 57 30
4 5 5 15 31 36 34 32 27 22 18 16 15 14 13 14 14 23 21 31 29 51 79 96 96 97 94 88 87 94 96 95 97 100 100 93 51 38
4 3 4 5 15 33 36 31 30 27 22 18 16 37 96 46 25 13 58 65 73 89 89 95 93 82 97 93 98 99 100 97 97 100 100 91 78 91
4 3 3 5 10 18 32 32 30 30 26 21 17 19 50 22 20 32 84 76 91 95 69 44 69 92 98 91 100 98 97 96 94 99 99 99 97 91
4 3 3 3 7 14 19 31 31 28 28 25 19 15 14 17 28 54 98 90 87 60 47 76 82 99 99 100 98 97 96 89 99 98 100 96 94 85
22 3 3 2 4 9 16 20 30 28 26 26 24 19 17 14 15 21 74 91 96 49 93 82 98 96 98 89 87 89 97 100 99 99 99 97 95 78
67 10 2 2 2 5 12 16 19 26 26 24 24 23 20 17 14 14 21 62 98 77 42 35 62 100 98 98 99 99 99 97 100 100 99 97 83 71
53 33 5 2 2 2 6 13 17 16 22 25 23 20 22 20 18 15 15 91 100 38 19 41 96 100 78 86 80 98 100 100 99 100 98 87 87 86
42 13 8 3 2 2 2 5 17 21 21 27 25 20 20 20 19 17 13 29 48 50 53 80 100 93 81 87 100 100 100 99 99 99 98 98 83 91
92 25 6 4 2 2 2 2 5 21 28 28 27 22 21 20 20 18 13 14 37 54 67 93 95 71 86 100 98 98 97 98 100 98 98 90 98 100
100 99 10 4 3 2 2 2 2 8 20 30 28 27 25 24 20 58 75 56 23 40 67 62 87 100 100 99 100 100 98 99 100 97 98 100 98 96
100 100 30 4 3 3 3 3 6 14 8 20 28 30 28 26 22 48 78 41 21 20 37 54 89 96 100 100 99 99 98 99 99 100 100 100 100 98
Wind_Speed
84 81 87 66 55 58 60 57 71 73 73 62 58 56 55 54 52 50 50 48 47 45 45 43 40 40 40 40 37 35 35 34 38 37 35 33 33 31
92 85 78 85 65 66 59 63 62 59 68 68 65 58 58 56 54 52 53 50 50 48 45 41 40 42 41 39 36 34 32 32 36 38 36 35 34 32
93 90 86 84 79 66 61 60 54 62 61 69 69 65 60 57 54 52 51 51 50 47 45 44 46 45 43 42 37 37 34 33 36 36 38 38 38 34
97 94 89 87 83 86 65 65 62 52 48 56 71 69 63 59 59 60 55 53 53 50 47 47 48 46 46 41 41 40 41 38 40 42 43 41 36 37
102 98 95 92 89 81 86 70 56 69 58 61 67 65 68 68 67 63 58 56 57 54 52 51 52 49 46 46 42 42 38 41 44 43 43 40 38 38
107 103 99 97 93 91 88 82 80 68 76 64 58 60 61 59 61 60 59 62 58 55 53 55 52 53 52 45 46 45 41 44 44 42 42 41 40 38
109 108 105 100 97 95 92 88 83 73 74 69 61 60 57 59 56 58 59 62 63 63 63 60 58 57 57 56 51 44 47 45 42 42 42 40 41 39
109 110 109 105 101 97 95 91 87 84 64 68 59 60 63 58 61 59 59 60 63 62 65 61 63 65 63 57 47 49 46 43 41 41 43 41 41 40
115 110 109 109 105 100 97 93 94 89 86 76 68 70 66 64 55 59 56 60 53 52 63 61 58 52 51 55 54 51 48 43 41 43 43 41 41 41
121 116 111 109 108 105 101 97 96 92 88 83 75 68 70 65 65 63 62 61 59 55 58 56 53 50 46 44 46 46 45 42 43 43 41 41 42 42
121 122 118 112 109 107 105 101 97 94 89 86 79 81 79 75 73 65 65 66 65 60 48 48 41 40 44 46 47 49 48 44 45 44 41 41 43 42
114 121 123 117 111 109 107 104 102 93 91 87 84 84 81 81 75 74 73 67 70 64 61 52 43 42 47 48 49 52 48 47 46 46 45 44 45 44
113 118 120 121 117 112 109 106 101 95 92 90 84 83 84 81 79 74 71 70 75 68 58 62 60 51 55 49 50 51 52 49 45 49 48 48 48 46
103 115 118 120 121 117 112 107 102 99 97 94 88 78 77 77 75 68 61 58 62 62 65 56 51 52 53 52 51 53 53 52 49 55 54 50 48 50
93 104 116 122 124 123 118 111 106 103 100 98 93 92 90 80 72 72 60 57 56 56 54 53 56 55 53 47 55 55 52 49 49 53 50 50 51 50
78 92 107 121 128 127 123 118 114 108 103 99 95 93 87 82 76 70 59 58 57 50 54 56 58 57 49 54 52 53 54 49 50 54 50 51 50 50
59 80 95 112 129 132 127 122 118 112 108 101 97 94 88 84 79 77 72 66 64 51 54 50 60 61 50 53 58 59 53 51 55 56 56 49 46 46
49 60 79 96 115 130 130 124 121 117 111 103 100 95 91 86 81 78 76 75 74 60 57 61 60 69 57 56 54 60 59 57 56 57 54 51 48 49
38 48 62 80 93 112 128 128 123 118 112 107 104 98 93 90 87 81 75 76 74 61 63 65 68 66 64 61 63 59 59 61 57 55 54 50 52 53
30 36 50 66 80 90 103 122 122 119 116 111 108 101 94 90 87 81 78 79 71 61 58 62 60 60 60 61 65 62 57 62 60 58 58 58 55 52
13 21 37 50 66 79 87 96 112 116 114 112 109 102 95 91 84 78 79 75 70 68 65 63 58 60 63 54 56 59 61 65 66 66 61 54 54 55
16 10 25 41 51 58 67 77 90 106 109 106 105 101 93 88 80 71 75 71 69 73 71 74 72 66 69 70 68 69 68 66 70 68 56 55 59 58
19 8 15 34 45 49 54 63 67 71 85 100 100 95 92 87 81 79 76 77 74 70 73 69 70 77 79 69 61 63 67 70 70 62 59 61 63 60
Wind_Direction
237 235 240 243 244 242 245 251 241 231 231 229 232 235 237 238 239 240 243 245 247 250 253 257 260 265 267 268 267 271 277 279 286 285 282 284 287 289
234 236 238 237 241 240 237 243 252 253 234 233 232 234 235 235 237 238 241 243 247 249 252 257 261 263 266 266 267 273 275 279 283 289 286 287 285 287
234 235 235 237 234 232 239 242 246 246 240 233 234 233 236 236 239 241 244 246 248 249 252 255 257 258 261 264 267 268 275 278 280 284 283 284 284 287
233 234 234 236 234 235 238 236 237 248 248 249 234 233 231 234 235 236 238 242 245 248 251 252 256 260 260 259 263 269 276 275 278 279 282 281 282 282
234 232 233 233 234 231 232 237 235 237 246 242 236 234 236 237 240 238 238 241 243 245 249 254 257 258 257 257 260 268 275 273 274 274 279 278 278 278
236 234 232 233 233 234 234 235 238 243 243 235 236 239 236 241 240 242 241 241 244 248 251 255 256 259 258 255 264 265 273 268 272 274 277 275 275 275
235 235 234 233 233 234 234 233 234 234 229 230 226 243 238 240 244 244 243 244 247 252 253 253 261 261 258 259 259 262 265 266 269 272 272 272 272 275
233 234 234 233 232 232 233 235 234 231 228 237 234 240 247 239 240 243 244 245 249 256 254 256 257 261 260 253 255 260 264 268 268 269 270 269 271 274
232 231 232 233 233 233 232 232 234 233 233 233 232 239 243 237 240 240 245 247 252 254 252 255 254 250 251 253 253 259 264 266 267 267 266 267 271 274
231 230 230 232 233 233 233 231 233 232 232 234 234 233 233 242 244 245 250 251 253 251 251 251 242 245 249 248 253 260 266 265 265 264 264 265 268 272
230 229 229 229 231 233 233 232 231 231 232 232 233 232 235 241 243 242 242 251 253 254 260 248 247 251 254 256 259 259 261 262 266 265 264 267 269 271
227 228 228 228 228 231 232 232 231 230 232 232 233 235 237 238 242 241 246 247 253 254 256 248 249 260 258 259 256 258 257 262 263 263 263 269 270 271
229 225 225 226 226 227 230 231 231 230 231 233 232 236 238 240 240 242 247 249 250 252 249 251 258 259 253 256 252 252 259 261 260 266 264 269 268 268
231 226 221 222 224 225 227 229 229 229 229 230 230 231 231 234 237 242 244 246 248 246 252 251 253 254 259 254 256 255 258 257 263 264 264 264 267 270
234 229 222 219 219 223 224 225 226 227 227 227 227 228 230 235 238 238 241 245 248 243 246 249 253 253 256 248 250 251 263 255 261 259 263 263 268 272
238 231 226 220 218 218 221 222 224 225 226 227 226 229 231 232 232 233 237 241 242 247 246 246 249 254 245 247 253 254 264 257 261 253 258 260 262 268
241 233 227 223 219 216 217 219 222 224 225 226 227 227 229 232 232 234 233 241 240 241 243 244 247 252 249 259 256 261 259 253 257 251 254 264 273 276
241 233 229 226 223 218 216 216 219 221 223 225 227 226 227 231 232 234 234 239 234 240 247 249 251 246 253 254 259 247 249 252 250 253 256 275 285 279
244 231 223 223 223 223 220 215 216 218 220 222 226 227 227 229 232 235 234 237 236 250 247 248 245 250 255 256 258 253 242 245 247 251 269 280 281 277
252 236 224 216 217 219 222 221 215 214 217 219 222 225 226 228 230 233 236 237 242 242 247 245 243 246 257 255 256 249 246 241 247 265 282 287 281 275
261 253 228 217 213 215 217 219 220 215 215 216 219 222 224 227 228 232 234 238 234 237 236 247 253 253 254 250 248 249 250 251 252 265 283 281 270 268
206 279 237 213 206 207 212 214 218 217 216 215 216 218 221 224 226 229 229 229 235 237 241 244 247 251 246 250 251 250 251 253 260 272 272 268 265 270
213 252 241 211 195 192 197 201 205 214 220 218 216 216 219 220 225 226 236 241 240 240 242 250 251 245 243 245 246 249 256 261 266 267 267 265 265 270